Regional Weather Roundup
Issued by NWS

Home | Current Version | Previous Version | Text Only | Print | Product List | Glossary On
Versions: 1 2 3 4 5 6 7 8 9 10 11 12 13 14 15 16 17 18 19 20 21 22 23 24 25 26 27 28 29 30 31 32 33 34 35 36 37 38 39 40 41 42 43 44 45 46 47 48 49 50
000
ASCA44 KEWX 280420
RWRMX

LATIN AMERICA AND CARIBBEAN REGIONAL WEATHER ROUNDUP
NATIONAL WEATHER SERVICE AUSTIN/SAN ANTONIO TX
1100 PM CDT MON JUL 27 2015

NOTE: "FAIR" INDICATED FEW OR NO CLOUDS BELOW 12,000 FEET WITH NO
SIGNIFICANT WEATHER AND/OR OBSTRUCTIONS TO VISIBILITY.

BAJA CALIFORNIA

CITY           SKY/WX    TMP DP  RH WIND       PRES   REMARKS
LA PAZ         PTCLDY    86  64  48 S7        29.81S
MEXICALI       CLEAR     91  57  31 SE6       29.71R HX  90
S.J. DEL CABO  CLEAR     82  73  74 E6        29.87
TIJUANA        PTCLDY    66  57  72 W7        29.93

NORTHWESTERN MEXICO

CITY           SKY/WX    TMP DP  RH WIND       PRES   REMARKS
CULIACAN       MOCLDY    88  79  74 S6        29.85R HX 102
HERMOSILLO     CLEAR     90  70  51 N3        29.84R HX  95
CD. JUAREZ       N/A    N/A N/A N/A MISG        N/A
LOS MOCHIS       N/A    N/A N/A N/A MISG        N/A
OBREGON          N/A    N/A N/A N/A MISG        N/A

NORTHEASTERN MEXICO

CITY           SKY/WX    TMP DP  RH WIND       PRES   REMARKS
CHIHUAHUA      MOCLDY    81  52  36 SW6       30.05R
MATAMOROS      CLEAR     82  79  89 E8        29.93R HX  93
MONCLOVA         N/A    N/A N/A N/A MISG        N/A
MONTERREY      CLEAR     84  70  61 E8        29.87R
PIEDRAS NEGRAS   N/A    N/A N/A N/A MISG        N/A
REYNOSA        CLEAR     79  72  78 SE14      29.86F
SALTILLO       CLEAR     77  59  53 CALM      30.12R
TORREON        TSTM      84  63  48 SE5       30.03

WESTERN MEXICO

CITY           SKY/WX    TMP DP  RH WIND       PRES   REMARKS
AGUASCALIENTES PTCLDY    64  39  39 E5        30.23R
DEL BAJIO      CLEAR     73  45  35 NE7       30.26R
GUADALAJARA    MOCLDY    64  59  82 W8        30.16R
MAZATLAN       MOCLDY    82  73  74 W6        29.85R
P. VALLARTA    CLOUDY    79  77  94 NE3       29.86R
ZACATECAS      CLEAR     66  39  37 SE9       30.28

CENTRAL MEXICO

CITY           SKY/WX    TMP DP  RH WIND       PRES   REMARKS
MEXICO CITY    PTCLDY    66  52  59 NW6       30.32R
PUEBLA         PTCLDY    61  48  63 CALM      30.34R
QUERETARO      PTCLDY    63  54  72 SE6       30.29R
S. LUIS POTOSI CLEAR     66  46  48 N5        30.24
TAMPICO        MOCLDY    82  77  83 SE9       29.92  HX  91
TOLUCA         CLOUDY    54  50  87 S9        30.41R

SOUTHERN MEXICO

CITY           SKY/WX    TMP DP  RH WIND       PRES   REMARKS
ACAPULCO       MOCLDY    86  81  84 SW3       29.86R HX 102
OAXACA         PTCLDY    72  46  40 CALM      30.23R
P. ESCONDIDO   PTCLDY    84  70  61 NE6       29.97R
VERACRUZ       CLEAR     81  75  83 E3        29.93R
ZIHUATANEJO      N/A    N/A N/A N/A MISG        N/A

YUCATAN PENINSULA

CITY           SKY/WX    TMP DP  RH WIND       PRES   REMARKS
CANCUN         CLEAR     84  77  79 E7        30.02R HX  94
CD. DEL CARMEN CLEAR     86  77  74 NE15      29.92R HX  97
COZUMEL        PTCLDY    79  75  89 CALM      30.02R
MERIDA         PTCLDY    82  70  65 E14       29.97R
TAPACHULA      MOCLDY    82  79  89 CALM      29.87R HX  93
TUX. GUTIERREZ PTCLDY    77  68  73 CALM      29.92R
VILLAHERMOSA   CLEAR     82  72  69 E9        29.90R

CENTRAL AMERICA

CITY           SKY/WX    TMP DP  RH WIND       PRES   REMARKS
MANAGUA        PTCLDY    81  73  78 SE7       29.86S

CARIBBEAN

CITY           SKY/WX    TMP DP  RH WIND       PRES   REMARKS
ARUBA          PTCLDY    82  77  83 E20       29.89S HX  91
CURACAO        PTCLDY    81  75  83 E15       29.94S
KINGSTON       PTCLDY    84  73  70 W5        29.97S HX  91
NASSAU         PTCLDY    84  73  70 CALM      30.05S HX  91
SAN JUAN       PTCLDY    82  75  78 E16       30.06F
SANTO DOMINGO  PTCLDY    81  72  74 NE6       30.03S
ST. CROIX      CLEAR     81  73  78 E10       30.04
ST. MAARTEN    PTCLDY    82  73  74 E12       30.03F
ST. THOMAS     CLEAR     82  73  74 E14       30.05

$$



USA.gov is the U.S. government's official web portal to all federal, state and local government web resources and services.